Location: Napoli
(40.8330°N, 14.2500°E)
Time: 01:17:55
(UTC+01:00)

ISS - Visible Passes

Search period start: 29 November 2021 00:00
Search period end: 09 December 2021 00:00
Orbit: 417 x 423 km, 51.6° (Epoch: 28 November)

Date Brightness Start Highest point End Pass type
(mag) Time Alt. Az. Time Alt. Az. Time Alt. Az.
29 Nov -1.4 17:07:00 10° NW 17:08:56 14° N 17:10:52 10° NNE visible
29 Nov -0.9 18:44:36 10° NNW 18:44:54 11° NNW 18:44:54 11° NNW visible
30 Nov -1.6 17:57:27 10° NNW 17:59:24 14° N 17:59:38 14° NNE visible
01 Dec -1.5 17:10:09 10° NNW 17:11:56 13° N 17:13:42 10° NE visible
01 Dec -1.0 18:46:47 10° NW 18:47:22 13° NNW 18:47:22 13° NNW visible
02 Dec -2.0 17:59:42 10° NNW 18:02:11 20° NNE 18:02:11 20° NNE visible
03 Dec -1.8 17:12:35 10° NNW 17:14:50 16° NNE 17:17:04 10° NE visible
03 Dec -1.4 18:48:54 10° NW 18:50:04 19° NW 18:50:04 19° NW visible
04 Dec -3.0 18:01:45 10° NW 18:04:55 35° NNE 18:05:04 35° NE visible
05 Dec -2.5 17:14:38 10° NW 17:17:32 25° NNE 17:20:15 11° E visible
05 Dec -1.9 18:51:14 10° WNW 18:53:16 31° W 18:53:16 31° W visible
06 Dec -3.8 18:03:54 10° NW 18:07:18 90° SE 18:08:41 33° SE visible
07 Dec -3.6 17:16:39 10° NW 17:20:00 55° NNE 17:23:20 10° ESE visible
07 Dec -1.1 18:54:12 10° W 18:56:32 17° SW 18:57:29 16° SSW visible
08 Dec -1.7 18:06:24 10° WNW 18:09:23 29° SW 18:12:21 10° SSE visible
